Flag for Poland Weather past 2 weeks in Tarnów, Poland

Now
43 °F

Clear.


Feels Like: 43 °F
Forecast: 47 / 74 °F
Wind: 1 mph from East

Location: Tarnow


UV Index: 0 (Low)

Visibility: 16 mi


Pressure: 29.89 "Hg

Humidity: 94%

Dew point: 42 °F

Location of TarnówLocation

Historic Weather in Tarnów

°F

Tarnów temperature yesterday

Maximum temperature yesterday: 63 °F (at 4:00 PM)
Minimum temperature yesterday: 45 °F (at 6:00 AM)
Average temperature yesterday: 54 °F

Past Weeks' High & Low Weather Summary

 TemperatureHumidityPressure
High72 °F (Apr 8, 2:00 PM)100% (Apr 7, 2:00 AM)30.36 "Hg (Apr 7, 2:00 AM)
Low32 °F (Apr 17, 3:00 AM)35% (Apr 8, 2:00 PM)29.70 "Hg (Apr 14, 2:00 PM)
Average49 °F77%30.00 "Hg
* Reported Apr 6 4:00 AM — Apr 21 4:00 AM, Tarnów, Weather by CustomWeather, © 2014

Note: Actual official high and low records may vary slightly from our data, if they occured in-between our weather recording intervals... More about our weather records

Advertising

Historic Weather Conditions — Data for Previous 24 hours

 ConditionsComfort  
Time TempWeatherWind HumidityBarometerVisibility
4:00 AM
Apr 21
43 °FClear.1 mph94%29.89 "Hg16 mi
3:00 AM45 °FPassing clouds.1 mph89%29.90 "Hg19 mi
2:00 AM46 °FClear.2 mph87%29.90 "Hg31 mi
1:00 AM47 °FClear.1 mph84%29.91 "Hg28 mi
12:00 AM50 °FClear.2 mph78%29.90 "Hg31 mi
11:00 PM
Apr 20
50 °FPassing clouds.1 mph74%29.90 "Hg28 mi
10:00 PM53 °FOvercast.2 mph67%29.90 "Hg31 mi
9:00 PM53 °FOvercast.1 mph68%29.90 "Hg28 mi
8:00 PM55 °FPassing clouds.1 mph63%29.88 "Hg19 mi
7:00 PM58 °FOvercast.3 mph65%29.85 "Hg14 mi
6:00 PM60 °FPartly sunny.5 mph64%29.85 "Hg18 mi
5:00 PM61 °FOvercast.5 mph59%29.85 "Hg19 mi
4:00 PM63 °FOvercast.3 mph54%29.85 "Hg25 mi
3:00 PM62 °FOvercast.3 mph57%29.87 "Hg19 mi
2:00 PM62 °FOvercast.5 mph60%29.89 "Hg16 mi
1:00 PM61 °FPartly sunny.3 mph62%29.90 "Hg16 mi
12:00 PM57 °FOvercast.6 mph73%29.92 "Hg11 mi
11:00 AM56 °FOvercast.5 mph72%29.93 "Hg15 mi
10:00 AM56 °FPartly sunny.2 mph71%29.93 "Hg17 mi
9:00 AM52 °FPartly sunny.2 mph80%29.95 "Hg11 mi
8:00 AM48 °FFog.1 mph91%29.95 "Hg6 mi
7:00 AM46 °FFog.1 mph96%29.94 "Hg2 mi
6:00 AM45 °FFog.2 mph96%29.93 "Hg3 mi
Weather by CustomWeather, © 2014

See weather overview